Location: Lake Almanor
(40.2485°N, 121.1442°W)
Time: 11:54:31
(UTC-08:00)

STARLINK-1092 - Pass Details

Date: 31 January 2020
Orbit: 348 x 351 km, 53.0° (Epoch: 18 February)

Event Time Altitude Azimuth Distance (km) Brightness Sun altitude
Rises 18:11:04 0° 315° (NW) 2,165 7.1 -9.8°
Reaches altitude 10° 18:13:11 10° 325° (NW) 1,319 5.9 -10.2°
Maximum altitude 18:15:55 35° 33° (NNE) 593 3.4 -10.7°
Enters shadow 18:17:40 18° 92° (E) 958 4.3 -11.0°
